This demonstration page uses our WeatherBlox Daily Observations layout. Learn more.

Left ArrowRight Arrow

39.51506, -84.39828

Hourly Observations for September 12, 2016

Temp ( °F °C ) Dew Point ( °F °C ) Humidity (%) Winds ( mph kmh ) Pressure ( in mb ) Visibility ( mi km ) Precip ( " mm )
12:15 am 00:15 undefined N/A N/A N/A undefined N/A N/A N/A N/A
12:35 am 00:35 undefined N/A N/A N/A undefined N/A N/A N/A N/A
12:55 am 00:55 undefined N/A N/A N/A undefined N/A N/A N/A N/A
1:15 am 01:15 undefined N/A N/A N/A undefined N/A N/A N/A N/A
1:35 am 01:35 undefined N/A N/A N/A undefined N/A N/A N/A N/A
1:55 am 01:55 undefined N/A N/A N/A undefined N/A N/A N/A N/A
2:15 am 02:15 undefined N/A N/A N/A undefined N/A N/A N/A N/A
2:35 am 02:35 undefined N/A N/A N/A undefined N/A N/A N/A N/A
2:55 am 02:55 undefined N/A N/A N/A undefined N/A N/A N/A N/A
3:15 am 03:15 undefined N/A N/A N/A undefined N/A N/A N/A N/A
3:35 am 03:35 undefined N/A N/A N/A undefined N/A N/A N/A N/A
3:55 am 03:55 undefined N/A N/A N/A undefined N/A N/A N/A N/A
4:15 am 04:15 undefined N/A N/A N/A undefined N/A N/A N/A N/A
4:35 am 04:35 undefined N/A N/A N/A undefined N/A N/A N/A N/A
4:55 am 04:55 undefined N/A N/A N/A undefined N/A N/A N/A N/A
5:15 am 05:15 undefined N/A N/A N/A undefined N/A N/A N/A N/A
5:35 am 05:35 undefined N/A N/A N/A undefined N/A N/A N/A N/A
5:55 am 05:55 undefined N/A N/A N/A undefined N/A N/A N/A N/A
6:15 am 06:15 undefined N/A N/A N/A undefined N/A N/A N/A N/A
6:35 am 06:35 undefined N/A N/A N/A undefined N/A N/A N/A N/A
6:55 am 06:55 undefined N/A N/A N/A undefined N/A N/A N/A N/A
7:15 am 07:15 undefined N/A N/A N/A undefined N/A N/A N/A N/A
7:35 am 07:35 undefined N/A N/A N/A undefined N/A N/A N/A N/A
7:55 am 07:55 undefined N/A N/A N/A undefined N/A N/A N/A N/A
8:15 am 08:15 undefined N/A N/A N/A undefined N/A N/A N/A N/A
8:35 am 08:35 undefined N/A N/A N/A undefined N/A N/A N/A N/A
8:55 am 08:55 undefined N/A N/A N/A undefined N/A N/A N/A N/A
9:15 am 09:15 undefined N/A N/A N/A undefined N/A N/A N/A N/A
9:35 am 09:35 undefined N/A N/A N/A undefined N/A N/A N/A N/A
9:55 am 09:55 undefined N/A N/A N/A undefined N/A N/A N/A N/A
10:15 am 10:15 undefined N/A N/A N/A undefined N/A N/A N/A N/A
10:35 am 10:35 undefined 69 20.8 56 13.4 63 63 N N/A 30.18 1022 N/A N/A
10:55 am 10:55 Sunny 71 21.6 55 12.8 57 57 N N/A 30.18 1022 10 16 N/A
11:15 am 11:15 Sunny 74 23.6 56 13.2 52 52 N N/A 30.18 1022 10 16 N/A
11:35 am 11:35 Sunny 74 23.6 52 11 45 45 SE 3 6 30.18 1022 10 16 N/A
11:55 am 11:55 Sunny 76 24.6 53 11.5 44 44 N N/A 30.18 1022 10 16 N/A
12:15 pm 12:15 Partly Cloudy 74 23.6 51 10.3 43 43 SE 5 7 30.18 1022 10 16 N/A
12:35 pm 12:35 Mostly Cloudy 77 24.8 49 9.7 39 39 N N/A 30.18 1022 10 16 N/A
12:55 pm 12:55 Partly Cloudy 77 25.1 50 10.1 39 39 ENE 5 7 30.15 1021 10 16 N/A
1:15 pm 13:15 Sunny 77 25.1 50 9.9 38 38 ESE 6 9 30.15 1021 10 16 N/A
1:35 pm 13:35 Sunny 77 25.1 48 8.8 36 36 N N/A 30.15 1021 10 16 N/A
1:55 pm 13:55 Sunny 80 26.5 51 10.7 37 37 ENE 5 7 30.15 1021 10 16 N/A
2:15 pm 14:15 Sunny 80 26.5 52 11.1 38 38 N 3 6 30.15 1021 10 16 N/A
2:35 pm 14:35 Sunny 80 26.5 49 9.4 34 34 NE 3 6 30.12 1020 10 16 N/A
2:55 pm 14:55 Sunny 80 26.5 50 10.1 36 36 ENE 5 7 30.12 1020 10 16 N/A
3:15 pm 15:15 Sunny 80 26.5 50 10.2 36 36 E 6 9 30.12 1020 10 16 N/A
3:35 pm 15:35 Sunny 80 26.5 48 9 33 33 N N/A 30.12 1020 10 16 N/A
3:55 pm 15:55 Sunny 80 26.5 49 9.3 34 34 SSE 5 7 30.12 1020 10 16 N/A
4:15 pm 16:15 Sunny 80 26.5 47 8.4 32 32 N N/A 30.09 1019 10 16 N/A
4:35 pm 16:35 Sunny 80 26.5 46 7.8 31 31 NNE 3 6 30.09 1019 10 16 N/A
4:55 pm 16:55 Sunny 80 26.5 47 8.2 31 31 E 5 7 30.09 1019 10 16 N/A
5:15 pm 17:15 Sunny 80 26.5 45 7.2 29 29 N N/A 30.09 1019 10 16 N/A
5:35 pm 17:35 Sunny 81 27 48 8.9 32 32 E 3 6 30.09 1019 10 16 N/A
5:55 pm 17:55 Sunny 80 26.5 48 9 33 33 SE 3 6 30.09 1019 10 16 N/A
6:15 pm 18:15 Sunny 80 26.5 49 9.4 34 34 ESE 3 6 30.09 1019 10 16 N/A
6:35 pm 18:35 Sunny 80 26.5 49 9.6 35 35 ENE 5 7 30.06 1018 10 16 N/A
6:55 pm 18:55 Sunny 80 26.5 52 10.9 38 38 N N/A 30.06 1018 10 16 N/A
7:15 pm 19:15 Sunny 77 25.1 50 10.1 39 39 E 5 7 30.06 1018 10 16 N/A
7:35 pm 19:35 Sunny 77 25.1 52 11.1 42 42 E 3 6 30.09 1019 10 16 N/A
7:55 pm 19:55 Clear 72 22.2 59 15 64 64 N N/A 30.09 1019 10 16 N/A
8:15 pm 20:15 Clear 69 20.8 61 16 74 74 N N/A 30.09 1019 10 16 N/A
8:35 pm 20:35 Clear 67 19.5 60 15.5 78 78 NNW 3 6 30.09 1019 10 16 N/A
8:55 pm 20:55 Clear 64 18 58 14.4 80 80 N N/A 30.09 1019 10 16 N/A
9:15 pm 21:15 Clear 64 17.5 57 14.1 81 81 N N/A 30.09 1019 10 16 N/A
9:35 pm 21:35 Clear 63 17.1 57 13.8 81 81 N N/A 30.09 1019 10 16 N/A
9:55 pm 21:55 Clear 63 17.2 57 14 82 82 N N/A 30.09 1019 10 16 N/A
10:15 pm 22:15 Clear 62 16.9 57 13.7 82 82 N N/A 30.09 1019 10 16 N/A
10:35 pm 22:35 Clear 62 16.6 56 13.3 81 81 N N/A 30.09 1019 10 16 N/A
10:55 pm 22:55 Clear 61 16.2 55 12.9 81 81 N N/A 30.12 1020 10 16 N/A
11:15 pm 23:15 Clear 61 16 55 12.9 82 82 N N/A 30.12 1020 10 16 N/A
11:35 pm 23:35 Clear 60 15.5 54 12.3 81 81 N N/A 30.12 1020 10 16 N/A
11:50 pm 23:50 Clear 60 15.5 55 12.5 82 82 N N/A 30.12 1020 10 16 N/A

Powered by AerisWeather